| time (UTC) | temp F | wind direction | speed knots | gust knots | rain 1hr in | rain 24hr in | rain mn in | humidity % | barometer mb |
| 20260509064531 | 47 | 0 | 0.0 | 0.9 | 0.00 | 0.02 | 0.00 | 89 | 1010.1 |
| 20260509063027 | 48 | 0 | 0.0 | 1.7 | 0.00 | 0.02 | 0.00 | 88 | 1010.3 |
| 20260509061533 | 48 | 192 | 0.0 | 3.5 | 0.00 | 0.02 | 0.00 | 88 | 1010.5 |
| 20260509060028 | 48 | 0 | 0.9 | 3.5 | 0.00 | 0.02 | 0.00 | 87 | 1010.7 |
| 20260509054529 | 48 | 228 | 0.0 | 1.7 | 0.00 | 0.02 | 0.00 | 86 | 1010.8 |
| 20260509053039 | 48 | 0 | 0.0 | 0.0 | 0.00 | 0.02 | 0.00 | 86 | 1010.9 |
| 20260509051529 | 49 | 0 | 0.0 | 0.9 | 0.00 | 0.02 | 0.00 | 86 | 1011.4 |
| 20260509050031 | 49 | 0 | 0.0 | 0.9 | 0.00 | 0.02 | 0.00 | 86 | 1011.5 |
| 20260509044528 | 49 | 0 | 0.0 | 1.7 | 0.00 | 0.02 | 0.00 | 86 | 1011.6 |
| 20260509043039 | 49 | 0 | 0.0 | 1.7 | 0.00 | 0.02 | 0.00 | 87 | 1011.4 |
| 20260509041536 | 49 | 0 | 0.0 | 0.0 | 0.00 | 0.02 | 0.00 | 86 | 1011.4 |
| 20260509040031 | 49 | 0 | 0.0 | 0.9 | 0.00 | 0.02 | 0.00 | 85 | 1011.4 |
| 20260509034528 | 49 | 0 | 0.0 | 0.9 | 0.00 | 0.02 | 0.02 | 84 | 1011.6 |
| 20260509033030 | 49 | 0 | 0.0 | 0.0 | 0.00 | 0.02 | 0.02 | 83 | 1011.3 |
| 20260509031531 | 49 | 0 | 0.0 | 1.7 | 0.00 | 0.02 | 0.02 | 83 | 1011.3 |
| 20260509030028 | 50 | 0 | 0.0 | 0.0 | 0.00 | 0.02 | 0.02 | 82 | 1011.4 |
| 20260509024528 | 50 | 0 | 0.0 | 1.7 | 0.00 | 0.02 | 0.02 | 81 | 1011.7 |
| 20260509023027 | 51 | 0 | 0.0 | 1.7 | 0.00 | 0.02 | 0.02 | 78 | 1011.6 |
| 20260509021528 | 52 | 0 | 0.0 | 1.7 | 0.00 | 0.02 | 0.02 | 76 | 1011.5 |
| 20260509020033 | 52 | 258 | 0.0 | 3.5 | 0.00 | 0.02 | 0.02 | 74 | 1011.2 |
| 20260509014528 | 53 | 0 | 0.0 | 7.0 | 0.00 | 0.02 | 0.02 | 72 | 1011.5 |
| 20260509013029 | 54 | 52 | 1.7 | 7.0 | 0.00 | 0.02 | 0.02 | 67 | 1011.6 |
| 20260509011531 | 54 | 49 | 2.6 | 5.2 | 0.00 | 0.02 | 0.02 | 66 | 1011.1 |
| 20260509010045 | 54 | 41 | 1.7 | 6.1 | 0.00 | 0.02 | 0.02 | 65 | 1010.8 |
| 20260509004529 | 54 | 46 | 0.9 | 5.2 | 0.00 | 0.02 | 0.02 | 65 | 1010.8 |
| 20260509003028 | 54 | 53 | 1.7 | 7.8 | 0.00 | 0.02 | 0.02 | 65 | 1010.7 |
| 20260509001531 | 55 | 89 | 3.5 | 7.8 | 0.00 | 0.02 | 0.02 | 65 | 1010.8 |
| 20260509000030 | 55 | 28 | 4.3 | 16.5 | 0.00 | 0.02 | 0.02 | 64 | 1010.7 |
| 20260508234529 | 55 | 45 | 3.5 | 9.6 | 0.00 | 0.02 | 0.02 | 66 | 1010.7 |
| 20260508233030 | 55 | 56 | 6.1 | 13.0 | 0.00 | 0.02 | 0.02 | 65 | 1010.6 |
| 20260508231529 | 55 | 46 | 6.1 | 16.5 | 0.00 | 0.02 | 0.02 | 65 | 1010.4 |
| 20260508230038 | 55 | 41 | 8.7 | 17.4 | 0.00 | 0.02 | 0.02 | 66 | 1010.0 |
| 20260508224536 | 55 | 70 | 6.1 | 12.2 | 0.00 | 0.02 | 0.02 | 68 | 1009.9 |
| 20260508223031 | 55 | 36 | 4.3 | 8.7 | 0.00 | 0.02 | 0.02 | 71 | 1010.0 |
| 20260508221541 | 55 | 10 | 2.6 | 6.1 | 0.00 | 0.02 | 0.02 | 73 | 1010.3 |
| 20260508220030 | 53 | 22 | 2.6 | 7.8 | 0.00 | 0.02 | 0.02 | 75 | 1010.5 |
| 20260508214530 | 53 | 80 | 2.6 | 6.1 | 0.00 | 0.02 | 0.02 | 73 | 1010.5 |
| 20260508213028 | 53 | 55 | 1.7 | 6.1 | 0.01 | 0.02 | 0.02 | 76 | 1010.3 |
| 20260508211530 | 51 | 13 | 2.6 | 7.8 | 0.01 | 0.02 | 0.02 | 77 | 1010.5 |
| 20260508210030 | 51 | 11 | 2.6 | 9.6 | 0.01 | 0.02 | 0.02 | 78 | 1010.7 |
| 20260508204529 | 53 | 53 | 7.0 | 20.9 | 0.01 | 0.02 | 0.02 | 72 | 1011.0 |
| 20260508203027 | 56 | 75 | 6.1 | 12.2 | 0.00 | 0.01 | 0.01 | 60 | 1010.4 |
| 20260508201528 | 56 | 30 | 0.9 | 3.5 | 0.00 | 0.01 | 0.01 | 62 | 1009.9 |
| 20260508200031 | 57 | 28 | 1.7 | 4.3 | 0.00 | 0.01 | 0.01 | 63 | 1010.3 |
| 20260508194529 | 56 | 355 | 1.7 | 3.5 | 0.00 | 0.01 | 0.01 | 61 | 1010.3 |
| 20260508193028 | 56 | 19 | 3.5 | 6.1 | 0.00 | 0.01 | 0.01 | 61 | 1010.5 |
| 20260508191530 | 56 | 45 | 1.7 | 4.3 | 0.00 | 0.01 | 0.01 | 57 | 1010.3 |
| 20260508190031 | 57 | 167 | 0.9 | 4.3 | 0.00 | 0.01 | 0.01 | 65 | 1010.4 |
| 20260508184534 | 55 | 136 | 4.3 | 13.0 | 0.00 | 0.01 | 0.01 | 64 | 1010.7 |
| 20260508183029 | 57 | 101 | 2.6 | 12.2 | 0.00 | 0.01 | 0.01 | 57 | 1010.7 |
| 20260508181528 | 57 | 33 | 4.3 | 10.4 | 0.01 | 0.01 | 0.01 | 56 | 1010.6 |
| 20260508180030 | 57 | 62 | 7.0 | 11.3 | 0.01 | 0.01 | 0.01 | 58 | 1010.9 |
| 20260508174536 | 56 | 166 | 5.2 | 9.6 | 0.01 | 0.01 | 0.01 | 63 | 1011.1 |
| 20260508173029 | 53 | 81 | 5.2 | 15.6 | 0.01 | 0.01 | 0.01 | 66 | 1011.1 |
| 20260508171531 | 56 | 55 | 7.8 | 13.9 | 0.00 | 0.00 | 0.00 | 51 | 1011.3 |
| 20260508170028 | 57 | 65 | 4.3 | 12.2 | 0.00 | 0.00 | 0.00 | 51 | 1011.0 |
| 20260508164534 | 56 | 54 | 5.2 | 16.5 | 0.00 | 0.00 | 0.00 | 52 | 1011.2 |
| 20260508163027 | 56 | 76 | 7.8 | 15.6 | 0.00 | 0.00 | 0.00 | 50 | 1011.2 |
| 20260508161526 | 56 | 53 | 7.8 | 20.0 | 0.00 | 0.00 | 0.00 | 51 | 1011.2 |
| 20260508160033 | 57 | 54 | 7.8 | 13.9 | 0.00 | 0.00 | 0.00 | 51 | 1011.3 |
| 20260508154531 | 58 | 59 | 8.7 | 20.9 | 0.00 | 0.00 | 0.00 | 55 | 1011.3 |
| 20260508153028 | 57 | 20 | 10.4 | 20.0 | 0.00 | 0.00 | 0.00 | 51 | 1011.3 |
| 20260508151531 | 57 | 51 | 11.3 | 26.9 | 0.00 | 0.00 | 0.00 | 51 | 1011.1 |
| 20260508150034 | 56 | 13 | 12.2 | 18.2 | 0.00 | 0.00 | 0.00 | 51 | 1010.9 |
| 20260508144529 | 55 | 12 | 9.6 | 19.1 | 0.00 | 0.00 | 0.00 | 53 | 1011.2 |
| 20260508143028 | 53 | 59 | 7.8 | 16.5 | 0.00 | 0.00 | 0.00 | 55 | 1011.3 |
| 20260508141528 | 52 | 32 | 7.0 | 13.0 | 0.00 | 0.00 | 0.00 | 56 | 1011.5 |
| 20260508140029 | 52 | 11 | 7.0 | 13.9 | 0.00 | 0.00 | 0.00 | 56 | 1011.8 |
| 20260508134528 | 51 | 352 | 9.6 | 14.8 | 0.00 | 0.00 | 0.00 | 56 | 1011.7 |
| 20260508133029 | 50 | 22 | 7.0 | 12.2 | 0.00 | 0.00 | 0.00 | 58 | 1011.8 |
| 20260508131529 | 49 | 5 | 6.1 | 13.0 | 0.00 | 0.00 | 0.00 | 58 | 1012.1 |
| 20260508130027 | 48 | 335 | 4.3 | 11.3 | 0.00 | 0.00 | 0.00 | 60 | 1012.1 |
| 20260508124530 | 46 | 40 | 1.7 | 4.3 | 0.00 | 0.00 | 0.00 | 69 | 1012.2 |
| 20260508123030 | 42 | 0 | 0.0 | 0.0 | 0.00 | 0.00 | 0.00 | 77 | 1012.2 |
| 20260508121530 | 41 | 0 | 0.0 | 0.0 | 0.00 | 0.00 | 0.00 | 79 | 1012.2 |
| 20260508120028 | 41 | 0 | 0.0 | 0.9 | 0.00 | 0.00 | 0.00 | 78 | 1012.3 |
| 20260508114530 | 40 | 0 | 0.0 | 0.0 | 0.00 | 0.00 | 0.00 | 83 | 1012.4 |
| 20260508113028 | 38 | 0 | 0.0 | 0.9 | 0.00 | 0.00 | 0.00 | 83 | 1012.4 |
| 20260508111529 | 36 | 0 | 0.0 | 0.0 | 0.00 | 0.00 | 0.00 | 86 | 1012.3 |
| 20260508110027 | 34 | 0 | 0.0 | 1.7 | 0.00 | 0.00 | 0.00 | 89 | 1012.2 |
| 20260508104541 | 34 | 107 | 0.0 | 1.7 | 0.00 | 0.00 | 0.00 | 88 | 1012.0 |
| 20260508103035 | 34 | 0 | 0.0 | 1.7 | 0.00 | 0.00 | 0.00 | 87 | 1011.9 |
| 20260508101528 | 34 | 0 | 0.0 | 1.7 | 0.00 | 0.00 | 0.00 | 86 | 1011.8 |
| 20260508100027 | 34 | 0 | 0.0 | 0.9 | 0.00 | 0.00 | 0.00 | 86 | 1011.7 |
| 20260508094527 | 35 | 0 | 0.0 | 1.7 | 0.00 | 0.00 | 0.00 | 85 | 1011.6 |
| 20260508093029 | 35 | 0 | 0.0 | 0.0 | 0.00 | 0.00 | 0.00 | 85 | 1011.5 |
| 20260508091528 | 35 | 0 | 0.0 | 0.0 | 0.00 | 0.00 | 0.00 | 85 | 1011.5 |
| 20260508090030 | 36 | 0 | 0.0 | 0.0 | 0.00 | 0.00 | 0.00 | 85 | 1011.5 |
| 20260508084530 | 36 | 0 | 0.0 | 0.0 | 0.00 | 0.00 | 0.00 | 84 | 1011.6 |
| 20260508083031 | 36 | 0 | 0.0 | 0.9 | 0.00 | 0.00 | 0.00 | 84 | 1011.5 |
| 20260508081530 | 37 | 0 | 0.0 | 0.9 | 0.00 | 0.00 | 0.00 | 85 | 1011.5 |
| 20260508080027 | 37 | 0 | 0.0 | 0.0 | 0.00 | 0.00 | 0.00 | 86 | 1011.6 |
| 20260508074526 | 37 | 0 | 0.0 | 0.0 | 0.00 | 0.00 | 0.00 | 86 | 1011.4 |
| 20260508073028 | 37 | 0 | 0.0 | 0.0 | 0.00 | 0.00 | 0.00 | 87 | 1011.4 |
| 20260508071528 | 37 | 0 | 0.0 | 0.9 | 0.00 | 0.00 | 0.00 | 87 | 1011.6 |
| 20260508070041 | 37 | 107 | 0.0 | 1.7 | 0.00 | 0.00 | 0.00 | 87 | 1011.7 |